"Period start","avg(HW err(1)/warn(2) (#))","avg(Visibility (m))","avg(Weather code (#))","avg(Precip intensity (mm/h))","min(HW err(1)/warn(2) (#))","max(HW err(1)/warn(2) (#))","std(HW err(1)/warn(2) (#))","med(HW err(1)/warn(2) (#))","min(Visibility (m))","max(Visibility (m))","std(Visibility (m))","med(Visibility (m))","min(Weather code (#))","max(Weather code (#))","std(Weather code (#))","med(Weather code (#))","min(Precip intensity (mm/h))","max(Precip intensity (mm/h))","std(Precip intensity (mm/h))","med(Precip intensity (mm/h))"
2014-05-01 00:00:00,2,11898,71,0.33,2,2,0,2,3568,24305,6308,11964,71,71,0,71,0.00,1.35,0.45,0.05
2014-05-01 00:10:00,2,17472,43,0.01,2,2,0,2,11489,21227,2820,18072,0,71,35,71,0.00,0.05,0.02,0.00
2014-05-01 00:20:00,2,20435,0,0.00,2,2,0,2,16332,25542,2957,20495,0,0,0,0,0.00,0.00,0.00,0.00
2014-05-01 00:30:00,2,21834,0,0.00,2,2,0,2,14068,28881,4638,21542,0,0,0,0,0.00,0.00,0.00,0.00
2014-05-01 00:40:00,2,19744,0,0.00,2,2,0,2,15769,26062,2702,19849,0,0,0,0,0.00,0.00,0.00,0.00
2014-05-01 00:50:00,2,18818,37,0.02,2,2,0,2,13981,23506,2738,18554,0,77,37,36,0.00,0.05,0.02,0.00
2014-05-01 01:00:00,2,21466,44,0.01,2,2,0,2,15657,33138,5192,19806,0,77,36,71,0.00,0.10,0.03,0.00
2014-05-01 01:10:00,2,21504,0,0.00,2,2,0,2,16220,27209,2742,21268,0,0,0,0,0.00,0.00,0.00,0.00
2014-05-01 01:20:00,2,15803,36,0.06,2,2,0,2,9645,23272,4856,15370,0,71,36,36,0.00,0.30,0.11,0.00
2014-05-01 01:30:00,2,16491,50,0.07,2,2,0,2,12393,19652,2137,16604,0,71,33,71,0.00,0.35,0.12,0.00
2014-05-01 01:40:00,2,19683,74,0.00,2,2,0,2,13438,24992,3669,19751,71,77,3,74,0.00,0.00,0.00,0.00
2014-05-01 01:50:00,2,11612,73,0.21,2,2,0,2,5649,17485,3179,11520,71,78,3,71,0.00,0.90,0.25,0.17
2014-05-01 02:00:00,2,16834,43,0.11,2,2,0,2,8630,26241,5285,18054,0,71,35,71,0.00,0.70,0.23,0.00
2014-05-01 02:10:00,2,22737,0,0.00,2,2,0,2,17520,29857,3961,22170,0,0,0,0,0.00,0.00,0.00,0.00
2014-05-01 02:20:00,2,23539,0,0.00,2,2,0,2,17814,32020,4450,22396,0,0,0,0,0.00,0.00,0.00,0.00
2014-05-01 02:30:00,2,20821,43,0.04,2,2,0,2,16364,27097,3223,19807,0,71,35,71,0.00,0.20,0.06,0.00
2014-05-01 02:40:00,2,22110,7,0.00,2,2,0,2,15693,28415,3919,21614,0,71,21,0,0.00,0.00,0.00,0.00
2014-05-01 02:50:00,2,29331,0,0.00,2,2,0,2,17451,43515,7732,29375,0,0,0,0,0.00,0.00,0.00,0.00
2014-05-01 03:00:00,2,20052,43,0.06,2,2,0,2,9370,42711,9813,18376,0,71,35,71,0.00,0.20,0.08,0.00
2014-05-01 03:10:00,2,21435,0,0.00,2,2,0,2,15450,27390,3811,20076,0,0,0,0,0.00,0.00,0.00,0.00
2014-05-01 03:20:00,2,19074,50,0.01,2,2,0,2,10081,29086,5618,17331,0,77,33,71,0.00,0.05,0.02,0.00
2014-05-01 03:30:00,2,15092,43,0.14,2,2,0,2,5675,24487,5907,15678,0,71,35,71,0.00,0.55,0.21,0.03
2014-05-01 03:40:00,2,21416,57,0.02,2,2,0,2,12062,31594,6085,20824,0,71,28,71,0.00,0.10,0.03,0.00
2014-05-01 03:50:00,2,22424,0,0.00,2,2,0,2,16625,35460,5384,21802,0,0,0,0,0.00,0.00,0.00,0.00
2014-05-01 04:00:00,2,17914,73,0.03,2,2,0,2,11061,26893,5696,16947,71,77,3,71,0.00,0.25,0.07,0.00
2014-05-01 04:10:00,2,16482,52,0.06,2,2,0,2,10128,23354,4485,16002,0,78,34,71,0.00,0.35,0.10,0.00
2014-05-01 04:20:00,2,18981,28,0.00,2,2,0,2,13545,29115,4591,18812,0,71,35,0,0.00,0.00,0.00,0.00
2014-05-01 04:30:00,2,17930,0,0.00,2,2,0,2,12548,35233,6338,15288,0,0,0,0,0.00,0.00,0.00,0.00
2014-05-01 04:40:00,2,19701,0,0.00,2,2,0,2,14606,27653,4412,18713,0,0,0,0,0.00,0.00,0.00,0.00
2014-05-01 04:50:00,2,18183,36,0.06,2,2,0,2,11906,24126,4639,19494,0,71,36,36,0.00,0.25,0.09,0.00
2014-05-01 05:00:00,2,17638,21,0.01,2,2,0,2,11280,23393,3559,17040,0,71,33,0,0.00,0.05,0.02,0.00
2014-05-01 05:10:00,2,15045,58,0.08,2,2,0,2,8614,20890,3889,13694,0,77,29,71,0.00,0.35,0.13,0.00
2014-05-01 05:20:00,2,12680,71,0.26,2,2,0,2,7236,19834,4066,10548,71,71,0,71,0.00,0.75,0.24,0.15
2014-05-01 05:30:00,2,14964,71,0.17,2,2,0,2,6769,26764,5889,13104,71,71,0,71,0.00,0.65,0.22,0.08
2014-05-01 05:40:00,2,22050,37,0.00,2,2,0,2,16170,28171,3801,21251,0,77,33,41,0.00,0.00,0.00,0.00
2014-05-01 05:50:00,2,20425,76,0.03,2,2,0,2,14111,27673,4725,19426,71,77,2,77,0.00,0.15,0.04,0.03
2014-05-01 06:00:00,2,23224,22,0.00,2,2,0,2,15387,30831,5325,24571,0,77,33,0,0.00,0.00,0.00,0.00
2014-05-01 06:10:00,2,16651,71,0.13,2,2,0,2,9303,23469,4701,17474,71,71,0,71,0.00,0.55,0.18,0.05
2014-05-01 06:20:00,2,14702,71,0.10,2,2,0,2,10042,21332,3823,14728,71,71,0,71,0.00,0.25,0.09,0.08
2014-05-01 06:30:00,2,15572,43,0.08,2,2,0,2,8814,22390,5100,15572,0,71,35,71,0.00,0.50,0.15,0.00
2014-05-01 06:40:00,2,10731,71,0.47,2,2,0,2,5818,19795,4798,9328,71,71,0,71,0.00,1.25,0.48,0.28
2014-05-01 06:50:00,2,11085,71,0.36,2,2,0,2,4760,18493,3945,10878,71,71,0,71,0.00,1.25,0.39,0.20
2014-05-01 07:00:00,2,14696,71,0.20,2,2,0,2,6210,19144,3263,15360,71,71,0,71,0.00,1.35,0.39,0.05
2014-05-01 07:10:00,2,17765,67,0.01,2,2,0,2,14813,23243,2772,16760,41,77,13,71,0.00,0.05,0.02,0.00
2014-05-01 07:20:00,2,12859,72,0.33,2,2,0,2,5929,19991,4244,13211,71,77,2,71,0.00,1.05,0.36,0.23
2014-05-01 07:30:00,2,20882,71,0.11,2,2,0,2,9904,38247,7208,18948,71,71,0,71,0.00,0.45,0.14,0.05
2014-05-01 07:40:00,2,21709,71,0.07,2,2,0,2,14708,31414,6085,19338,71,71,0,71,0.00,0.35,0.10,0.03
2014-05-01 07:50:00,2,19869,75,0.01,2,2,0,2,13256,31712,5116,19331,71,77,3,77,0.00,0.05,0.02,0.00
2014-05-01 08:00:00,2,22304,8,0.00,2,2,0,2,17288,26546,2488,22304,0,77,23,0,0.00,0.00,0.00,0.00
2014-05-01 08:10:00,2,32458,0,0.00,2,2,0,2,22222,46354,7659,31496,0,0,0,0,0.00,0.00,0.00,0.00
2014-05-01 08:20:00,2,26590,0,0.00,2,2,0,2,16150,33412,4918,26746,0,0,0,0,0.00,0.00,0.00,0.00
2014-05-01 08:30:00,2,26724,0,0.00,2,2,0,2,15935,37199,5375,25799,0,0,0,0,0.00,0.00,0.00,0.00
2014-05-01 08:40:00,2,31247,0,0.00,2,2,0,2,20507,44506,6430,29614,0,0,0,0,0.00,0.00,0.00,0.00
2014-05-01 08:50:00,2,24449,0,0.00,2,2,0,2,20688,37537,5047,22145,0,0,0,0,0.00,0.00,0.00,0.00
2014-05-01 09:00:00,2,28142,0,0.00,2,2,0,2,20354,33713,3815,28806,0,0,0,0,0.00,0.00,0.00,0.00
2014-05-01 09:10:00,2,26589,0,0.00,2,2,0,2,20385,33267,4187,25790,0,0,0,0,0.00,0.00,0.00,0.00
2014-05-01 09:20:00,2,25591,0,0.00,2,2,0,2,19424,32147,4203,24964,0,0,0,0,0.00,0.00,0.00,0.00
2014-05-01 09:30:00,2,26425,0,0.00,2,2,0,2,17590,34854,4974,25300,0,0,0,0,0.00,0.00,0.00,0.00
2014-05-01 09:40:00,2,27778,0,0.00,2,2,0,2,18593,40631,6713,28557,0,0,0,0,0.00,0.00,0.00,0.00
2014-05-01 09:50:00,2,27280,0,0.00,2,2,0,2,21978,39220,5038,26075,0,0,0,0,0.00,0.00,0.00,0.00
2014-05-01 10:00:00,2,28297,0,0.00,2,2,0,2,21355,32500,3149,28812,0,0,0,0,0.00,0.00,0.00,0.00
2014-05-01 10:10:00,2,27664,0,0.00,2,2,0,2,25522,32039,1840,27198,0,0,0,0,0.00,0.00,0.00,0.00
2014-05-01 10:20:00,2,25133,0,0.00,2,2,0,2,17660,33493,4798,25924,0,0,0,0,0.00,0.00,0.00,0.00
2014-05-01 10:30:00,2,31182,0,0.00,2,2,0,2,22435,42861,6031,29900,0,0,0,0,0.00,0.00,0.00,0.00
2014-05-01 10:40:00,2,33705,0,0.00,2,2,0,2,24498,39375,4077,33419,0,0,0,0,0.00,0.00,0.00,0.00
2014-05-01 10:50:00,2,31059,0,0.00,2,2,0,2,28010,35322,2270,30372,0,0,0,0,0.00,0.00,0.00,0.00
2014-05-01 11:00:00,2,35267,0,0.00,2,2,0,2,29251,41039,3844,35580,0,0,0,0,0.00,0.00,0.00,0.00
2014-05-01 11:10:00,2,34471,0,0.00,2,2,0,2,28897,40620,3113,34267,0,0,0,0,0.00,0.00,0.00,0.00
2014-05-01 11:20:00,2,33678,0,0.00,2,2,0,2,26248,40436,4296,32590,0,0,0,0,0.00,0.00,0.00,0.00
2014-05-01 11:30:00,2,34784,0,0.00,2,2,0,2,31447,38766,2282,34104,0,0,0,0,0.00,0.00,0.00,0.00
2014-05-01 11:40:00,2,31430,0,0.00,2,2,0,2,23801,36991,3853,31618,0,0,0,0,0.00,0.00,0.00,0.00
2014-05-01 11:50:00,2,23564,71,0.04,2,2,0,2,16265,28191,3524,24448,71,71,0,71,0.00,0.10,0.03,0.05
2014-05-01 12:00:00,2,13539,71,0.26,2,2,0,2,8932,21914,4281,12899,71,71,0,71,0.05,0.95,0.28,0.10
2014-05-01 12:10:00,2,9536,71,0.52,2,2,0,2,7975,10958,930,9728,71,71,0,71,0.10,0.95,0.25,0.55
2014-05-01 12:20:00,2,8029,71,0.67,2,2,0,2,5470,10254,1576,8230,71,71,0,71,0.35,1.10,0.24,0.57
2014-05-01 12:30:00,2,7729,71,0.89,2,2,0,2,4483,9562,1283,8102,71,71,0,71,0.25,1.35,0.28,0.90
2014-05-01 12:40:00,2,6530,71,1.00,2,2,0,2,5593,8370,732,6421,71,71,0,71,0.50,1.55,0.37,1.00
2014-05-01 12:50:00,2,5355,71,1.40,2,2,0,2,3833,7026,922,5206,71,71,0,71,0.45,1.80,0.48,1.65
2014-05-01 13:00:00,2,5463,71,1.28,2,2,0,2,4024,7121,919,5438,71,71,0,71,0.95,2.20,0.37,1.15
2014-05-01 13:10:00,2,5318,71,1.56,2,2,0,2,2961,8924,1481,5242,71,71,0,71,0.90,2.25,0.43,1.50
2014-05-01 13:20:00,2,5064,71,1.26,2,2,0,2,4161,6445,724,4954,71,71,0,71,0.75,1.80,0.34,1.15
2014-05-01 13:30:00,2,5155,71,1.45,2,2,0,2,4036,7690,925,4878,71,71,0,71,0.35,2.55,0.65,1.48
2014-05-01 13:40:00,2,4169,71,1.42,2,2,0,2,3376,5063,567,3990,71,71,0,71,0.75,2.20,0.42,1.27
2014-05-01 13:50:00,2,3439,71,2.10,2,2,0,2,2798,4533,526,3366,71,71,0,71,1.30,3.45,0.72,2.05
2014-05-01 14:00:00,2,3574,71,2.12,2,2,0,2,2534,4932,623,3394,71,71,0,71,0.80,3.00,0.58,2.25
2014-05-01 14:10:00,2,3342,71,2.02,2,2,0,2,2232,4253,620,3366,71,71,0,71,1.05,3.10,0.61,1.90
2014-05-01 14:20:00,2,3753,71,1.76,2,2,0,2,3113,4872,599,3522,71,71,0,71,1.10,2.30,0.40,1.68
2014-05-01 14:30:00,2,3216,71,1.74,2,2,0,2,2567,4291,667,2829,71,71,0,71,0.75,3.00,0.62,1.60
2014-05-01 14:40:00,2,3543,71,1.46,2,2,0,2,2820,4595,544,3350,71,71,0,71,1.00,2.10,0.33,1.40
2014-05-01 14:50:00,2,3487,71,2.03,2,2,0,2,2816,4496,605,3333,71,71,0,71,0.95,3.10,0.63,1.95
2014-05-01 15:00:00,2,4372,71,1.69,2,2,0,2,3560,6501,808,4142,71,71,0,71,1.25,2.65,0.42,1.52
2014-05-01 15:10:00,2,4976,71,1.32,2,2,0,2,2977,7040,1525,4767,71,71,0,71,0.20,2.40,0.71,1.08
2014-05-01 15:20:00,2,5222,71,1.02,2,2,0,2,3460,7402,1243,5008,71,71,0,71,0.45,1.90,0.50,0.80
2014-05-01 15:30:00,2,7363,71,0.79,2,2,0,2,4303,11927,2504,6524,71,71,0,71,0.45,1.20,0.24,0.78
2014-05-01 15:40:00,2,8511,71,0.61,2,2,0,2,5244,12384,2145,7924,71,71,0,71,0.10,1.10,0.38,0.57
2014-05-01 15:50:00,2,8030,71,0.76,2,2,0,2,3000,10998,2606,8740,71,71,0,71,0.10,1.55,0.50,0.82
2014-05-01 16:00:00,2,14484,71,0.35,2,2,0,2,8279,24284,4871,12308,71,71,0,71,0.00,0.95,0.30,0.35
2014-05-01 16:10:00,2,34022,72,0.04,2,2,0,2,19599,48511,9745,35144,71,77,2,71,0.00,0.20,0.06,0.00
2014-05-01 16:20:00,2,48979,23,0.00,2,2,0,2,44739,50000,1613,50000,0,78,36,0,0.00,0.00,0.00,0.00
2014-05-01 16:30:00,2,48897,0,0.00,2,2,0,2,45389,50000,1340,49409,0,0,0,0,0.00,0.00,0.00,0.00
2014-05-01 16:40:00,2,49961,0,0.00,2,2,0,2,49606,50000,118,50000,0,0,0,0,0.00,0.00,0.00,0.00
2014-05-01 16:50:00,2,49953,0,0.00,2,2,0,2,49529,50000,141,50000,0,0,0,0,0.00,0.00,0.00,0.00
2014-05-01 17:00:00,2,50000,0,0.00,2,2,0,2,50000,50000,0,50000,0,0,0,0,0.00,0.00,0.00,0.00
2014-05-01 17:10:00,2,49988,0,0.00,2,2,0,2,49879,50000,36,50000,0,0,0,0,0.00,0.00,0.00,0.00
2014-05-01 17:20:00,2,49652,0,0.00,2,2,0,2,46855,50000,938,50000,0,0,0,0,0.00,0.00,0.00,0.00
2014-05-01 17:30:00,2,49709,0,0.00,2,2,0,2,47671,50000,694,50000,0,0,0,0,0.00,0.00,0.00,0.00
2014-05-01 17:40:00,2,47726,0,0.00,2,2,0,2,38250,50000,3609,50000,0,0,0,0,0.00,0.00,0.00,0.00
2014-05-01 17:50:00,2,49940,0,0.00,2,2,0,2,49401,50000,180,50000,0,0,0,0,0.00,0.00,0.00,0.00
2014-05-01 18:00:00,2,48965,0,0.00,2,2,0,2,42163,50000,2311,49967,0,0,0,0,0.00,0.00,0.00,0.00
2014-05-01 18:10:00,2,48709,0,0.00,2,2,0,2,42039,50000,2315,49570,0,0,0,0,0.00,0.00,0.00,0.00
2014-05-01 18:20:00,2,48155,0,0.00,2,2,0,2,42199,50000,2652,49755,0,0,0,0,0.00,0.00,0.00,0.00
2014-05-01 18:30:00,2,48247,0,0.00,2,2,0,2,39765,50000,3019,49563,0,0,0,0,0.00,0.00,0.00,0.00
2014-05-01 18:40:00,2,48696,0,0.00,2,2,0,2,44405,50000,1822,49530,0,0,0,0,0.00,0.00,0.00,0.00
2014-05-01 18:50:00,2,43330,0,0.00,2,2,0,2,21390,50000,8377,45518,0,0,0,0,0.00,0.00,0.00,0.00
2014-05-01 19:00:00,2,46051,0,0.00,2,2,0,2,36172,50000,3864,46978,0,0,0,0,0.00,0.00,0.00,0.00
2014-05-01 19:10:00,2,46354,0,0.00,2,2,0,2,40767,50000,3242,46071,0,0,0,0,0.00,0.00,0.00,0.00
2014-05-01 19:20:00,2,43014,0,0.00,2,2,0,2,29875,50000,6735,44926,0,0,0,0,0.00,0.00,0.00,0.00
2014-05-01 19:30:00,2,38928,7,0.00,2,2,0,2,10447,50000,10758,41986,0,71,21,0,0.00,0.00,0.00,0.00
2014-05-01 19:40:00,2,30551,43,0.02,2,2,0,2,4680,50000,14666,30598,0,71,35,71,0.00,0.10,0.03,0.00
2014-05-01 19:50:00,2,17850,71,0.14,2,2,0,2,4301,31882,9568,17960,71,71,0,71,0.00,0.60,0.19,0.08
2014-05-01 20:00:00,2,11781,64,0.20,2,2,0,2,4921,26405,6195,11096,0,71,21,71,0.00,1.00,0.28,0.05
2014-05-01 20:10:00,2,13640,71,0.20,2,2,0,2,7092,24032,4564,12844,71,71,0,71,0.00,0.50,0.18,0.12
2014-05-01 20:20:00,2,8359,71,0.37,2,2,0,2,3984,15326,2867,7804,71,71,0,71,0.05,0.50,0.13,0.40
2014-05-01 20:30:00,2,6782,71,0.49,2,2,0,2,3642,12367,2427,6704,71,71,0,71,0.10,1.30,0.37,0.38
2014-05-01 20:40:00,2,5333,71,0.61,2,2,0,2,2361,10394,2405,4686,71,71,0,71,0.35,1.15,0.25,0.57
2014-05-01 20:50:00,2,3245,71,1.06,2,2,0,2,2167,5146,911,3096,71,71,0,71,0.60,1.85,0.41,1.02
2014-05-01 21:00:00,2,3367,71,0.78,2,2,0,2,1361,6575,1389,3118,71,71,0,71,0.20,1.70,0.43,0.68
2014-05-01 21:10:00,2,3720,71,1.01,2,2,0,2,2610,5798,1117,3154,71,71,0,71,0.25,2.25,0.61,0.95
2014-05-01 21:20:00,2,2592,71,1.36,2,2,0,2,1238,4633,981,2321,71,71,0,71,0.55,1.90,0.37,1.40
2014-05-01 21:30:00,2,1993,71,1.48,2,2,0,2,923,3796,828,1738,71,71,0,71,0.70,2.50,0.64,1.25
2014-05-01 21:40:00,2,3915,71,0.98,2,2,0,2,1037,9541,2392,3478,71,71,0,71,0.10,2.10,0.72,0.80
2014-05-01 21:50:00,2,4043,71,0.93,2,2,0,2,2094,6627,1245,3775,71,71,0,71,0.15,1.80,0.63,0.73
2014-05-01 22:00:00,2,4725,71,0.78,2,2,0,2,2231,9947,2178,4245,71,71,0,71,0.10,1.70,0.55,0.65
2014-05-01 22:10:00,2,7962,71,0.29,2,2,0,2,3951,12621,3006,7279,71,71,0,71,0.10,0.80,0.18,0.25
2014-05-01 22:20:00,2,10338,71,0.17,2,2,0,2,3337,15557,3598,11192,71,71,0,71,0.00,0.60,0.20,0.10
2014-05-01 22:30:00,2,12748,71,0.23,2,2,0,2,2472,33260,9643,10484,71,71,0,71,0.00,0.65,0.22,0.15
2014-05-01 22:40:00,2,10515,71,0.58,2,2,0,2,4554,18225,4749,8630,71,71,0,71,0.05,1.70,0.50,0.40
2014-05-01 22:50:00,2,12547,71,0.30,2,2,0,2,9244,16402,2298,12308,71,71,0,71,0.05,0.45,0.12,0.30
2014-05-01 23:00:00,2,14618,71,0.17,2,2,0,2,7450,23103,4669,12958,71,71,0,71,0.00,0.40,0.12,0.15
2014-05-01 23:10:00,2,29897,42,0.03,2,2,0,2,18021,38904,6586,30487,0,71,34,68,0.00,0.15,0.05,0.00
2014-05-01 23:20:00,2,23940,52,0.03,2,2,0,2,13850,33471,6385,23280,0,77,29,71,0.00,0.05,0.02,0.05
2014-05-01 23:30:00,2,32230,15,0.00,2,2,0,2,17208,44126,8036,33082,0,77,31,0,0.00,0.00,0.00,0.00
2014-05-01 23:40:00,2,28939,0,0.00,2,2,0,2,14967,41373,8889,28658,0,0,0,0,0.00,0.00,0.00,0.00
2014-05-01 23:50:00,2,27892,0,0.00,2,2,0,2,18274,43223,7956,26615,0,0,0,0,0.00,0.00,0.00,0.00
